Madison, MN

2:41 AM CDT on September 19, 2019 (GMT -0500)
Madison-Lac Qui Parle County

Weather History for KDXX - July, 2019

Change the Weather History Date:

Wednesday, July 17, 2019

  Actual Average (KAQP) Record (KAQP)
Temperature  
Mean Temperature 79 °F -  
Max Temperature 87 °F 80 °F 98 °F (2017)
Min Temperature 71 °F 60 °F 51 °F (2014)
Cooling Degree Days 14    
Growing Degree Days 29 (Base 50)    
Moisture  
Dew Point 70 °F    
Average Humidity 77    
Maximum Humidity 100    
Minimum Humidity 52    
Precipitation  
Precipitation 0.04 in - - ()
Sea Level Pressure  
Sea Level Pressure 29.79 in    
Wind  
Wind Speed 6 mph (SSW)    
Max Wind Speed 26 mph    
Max Gust Speed 34 mph    
Visibility 10 miles    
Events Rain    
Averages and records for this station are not official NWS values.
T = Trace of Precipitation, MM = Missing Value Source: NWS Daily Summary

Daily Weather History Graph

Daily Weather History Graph

Search for Another Location

Airport or City:

Astronomy

Jul. 17, 2019 Rise Set
Actual Time 5:54 AM CDT 9:07 PM CDT
Civil Twilight 5:18 AM CDT 9:42 PM CDT
Nautical Twilight 4:32 AM CDT 10:28 PM CDT
Astronomical Twilight 3:35 AM CDT 11:25 PM CDT
Moon 9:55 PM CDT (7/17) 6:27 AM CDT (7/17)
Length of Visible Light 16h 24m
Length of Day
15h 13m
Full, 99% of the Moon is Illuminated
Jul 17
Full
Jul 24
Last Quarter
Jul 31
New
Aug 7
First Quarter
Aug 15
Full

Hourly Weather History & Observations

Time (CDT) Temp. Heat Index Dew Point Humidity Pressure Visibility Wind Dir Wind Speed Gust Speed Precip Events Conditions
12:15 AM 75.2 °F - 69.8 °F 83% 29.89 in 10.0 mi Calm Calm - N/A   Clear
12:19 AM 75.2 °F - 69.8 °F 83% 29.88 in 10.0 mi Calm Calm - N/A   Clear
12:38 AM 73.4 °F - 71.6 °F 94% 29.89 in 10.0 mi Calm Calm - N/A   Clear
12:55 AM 73.4 °F - 71.6 °F 94% 29.88 in 10.0 mi East 5.8 mph - N/A   Clear
1:15 AM 73.4 °F - 71.6 °F 94% 29.86 in 10.0 mi East 4.6 mph - N/A   Clear
1:16 AM 73.4 °F - 71.6 °F 94% 29.86 in 10.0 mi East 5.8 mph - N/A   Clear
1:35 AM 73.4 °F - 71.6 °F 94% 29.85 in 10.0 mi ESE 6.9 mph - N/A   Clear
1:58 AM 73.4 °F - 71.6 °F 94% 29.87 in 10.0 mi Calm Calm - N/A   Clear
2:17 AM 73.4 °F - 71.6 °F 94% 29.86 in 10.0 mi SSE 3.5 mph - N/A   Clear
2:36 AM 73.4 °F - 71.6 °F 94% 29.86 in 10.0 mi Calm Calm - N/A   Clear
2:55 AM 73.4 °F - 71.6 °F 94% 29.86 in 10.0 mi Calm Calm - N/A   Clear
2:56 AM 73.4 °F - 71.6 °F 94% 29.86 in 10.0 mi Calm Calm - N/A   Clear
3:15 AM 73.4 °F - 71.6 °F 94% 29.86 in 10.0 mi Calm Calm - N/A   Clear
3:37 AM 73.4 °F - 71.6 °F 94% 29.87 in 10.0 mi Calm Calm - N/A   Clear
3:55 AM 73.4 °F - 71.6 °F 94% 29.89 in 10.0 mi Calm Calm - N/A   Clear
4:15 AM 73.4 °F - 71.6 °F 94% 29.86 in 10.0 mi Calm Calm - N/A   Scattered Clouds
4:35 AM 71.6 °F - 71.6 °F 100% 29.84 in 10.0 mi East 6.9 mph - N/A   Scattered Clouds
4:36 AM 71.6 °F - 71.6 °F 100% 29.84 in 10.0 mi East 6.9 mph - N/A   Scattered Clouds
4:59 AM 71.6 °F - 69.8 °F 94% 29.84 in 10.0 mi ESE 5.8 mph - N/A   Clear
5:16 AM 71.6 °F - 69.8 °F 94% 29.84 in 10.0 mi ESE 5.8 mph - N/A   Clear
5:36 AM 71.6 °F - 69.8 °F 94% 29.82 in 10.0 mi SE 6.9 mph - N/A   Clear
5:55 AM 73.4 °F - 69.8 °F 88% 29.83 in 10.0 mi SE 4.6 mph - N/A   Scattered Clouds
6:15 AM 73.4 °F - 71.6 °F 94% 29.86 in 10.0 mi SSW 8.1 mph - N/A Rain Light Rain
6:19 AM 73.4 °F - 71.6 °F 94% 29.86 in 10.0 mi South 8.1 mph - N/A Rain Light Rain
6:37 AM 73.4 °F - 71.6 °F 94% 29.87 in 10.0 mi South 10.4 mph - N/A Rain Light Rain
6:56 AM 73.4 °F - 71.6 °F 94% 29.87 in 10.0 mi SSW 9.2 mph - N/A Rain Light Rain
7:15 AM 73.4 °F - 71.6 °F 94% 29.87 in 10.0 mi SSW 10.4 mph - N/A Rain Light Rain
7:16 AM 73.4 °F - 71.6 °F 94% 29.87 in 10.0 mi SSW 10.4 mph - 0.02 in Rain Light Rain
7:35 AM 73.4 °F - 71.6 °F 94% 29.86 in 10.0 mi SSW 13.8 mph 20.7 mph N/A Rain Rain
7:36 AM 73.4 °F - 71.6 °F 94% 29.86 in 10.0 mi SSW 13.8 mph 20.7 mph 0.01 in Rain Rain
7:59 AM 73.4 °F - 69.8 °F 88% 29.81 in 10.0 mi South 20.7 mph 31.1 mph N/A Rain Light Rain
8:16 AM 73.4 °F - 68.0 °F 83% 29.81 in 10.0 mi SSW 23.0 mph 31.1 mph 0.02 in Rain Light Rain
8:35 AM 73.4 °F - 66.2 °F 78% 29.77 in 10.0 mi South 26.5 mph 34.5 mph N/A Rain Light Rain
8:36 AM 73.4 °F - 66.2 °F 78% 29.77 in 10.0 mi South 26.5 mph 34.5 mph 0.01 in Rain Light Rain
8:55 AM 73.4 °F - 66.2 °F 78% 29.77 in 10.0 mi SSW 17.3 mph 27.6 mph N/A Rain Light Rain
8:56 AM 73.4 °F - 66.2 °F 78% 29.77 in 10.0 mi SSW 16.1 mph 27.6 mph N/A Rain Light Rain
9:15 AM 73.4 °F - 64.4 °F 73% 29.77 in 10.0 mi South 16.1 mph 23.0 mph N/A   Clear
9:19 AM 73.4 °F - 64.4 °F 73% 29.77 in 10.0 mi South 18.4 mph 25.3 mph N/A   Clear
9:38 AM 73.4 °F - 64.4 °F 73% 29.79 in 10.0 mi South 9.2 mph 21.9 mph N/A Rain Light Rain
9:55 AM 73.4 °F - 66.2 °F 78% 29.79 in 10.0 mi South 9.2 mph - N/A   Clear
10:15 AM 73.4 °F - 66.2 °F 78% 29.76 in 10.0 mi SSE 8.1 mph - N/A   Clear
10:16 AM 73.4 °F - 66.2 °F 78% 29.76 in 10.0 mi SSE 10.4 mph - N/A   Clear
10:35 AM 73.4 °F - 66.2 °F 78% 29.77 in 10.0 mi South 6.9 mph 17.3 mph N/A   Clear
10:58 AM 75.2 °F - 66.2 °F 73% 29.75 in 10.0 mi South 8.1 mph - N/A   Clear
11:17 AM 75.2 °F - 68.0 °F 78% 29.74 in 10.0 mi SE 5.8 mph - N/A   Clear
11:36 AM 77.0 °F - 68.0 °F 74% 29.74 in 10.0 mi East 5.8 mph - N/A   Clear
11:55 AM 78.8 °F - 68.0 °F 69% 29.74 in 10.0 mi ESE 8.1 mph - N/A   Clear
11:56 AM 78.8 °F - 68.0 °F 69% 29.74 in 10.0 mi ESE 8.1 mph - N/A   Clear
12:15 PM 80.6 °F 83.9 °F 69.8 °F 70% 29.73 in 10.0 mi East 10.4 mph - N/A   Clear
12:19 PM 80.6 °F 83.9 °F 69.8 °F 70% 29.73 in 10.0 mi SE 9.2 mph - N/A   Clear
12:37 PM 80.6 °F 83.9 °F 69.8 °F 70% 29.74 in 10.0 mi SE 10.4 mph - N/A   Clear
1:15 PM 82.4 °F 86.3 °F 69.8 °F 66% 29.76 in 10.0 mi SSW 5.8 mph - N/A   Clear
1:16 PM 82.4 °F 87.2 °F 71.6 °F 70% 29.76 in 10.0 mi South 6.9 mph - N/A   Clear
1:35 PM 82.4 °F 86.3 °F 69.8 °F 66% 29.76 in 10.0 mi WSW 4.6 mph - N/A   Clear
1:36 PM 82.4 °F 86.3 °F 69.8 °F 66% 29.76 in 10.0 mi WSW 3.5 mph - N/A   Clear
1:59 PM 84.2 °F 88.4 °F 69.8 °F 62% 29.76 in 10.0 mi West 10.4 mph - N/A   Clear
2:16 PM 84.2 °F 88.4 °F 69.8 °F 62% 29.76 in 10.0 mi West 11.5 mph - N/A   Clear
2:36 PM 84.2 °F 88.4 °F 69.8 °F 62% 29.77 in 10.0 mi WNW 12.7 mph 16.1 mph N/A   Clear
2:55 PM 84.2 °F 88.4 °F 69.8 °F 62% 29.77 in 10.0 mi WNW 9.2 mph - N/A   Clear
2:56 PM 84.2 °F 88.4 °F 69.8 °F 62% 29.77 in 10.0 mi NW 9.2 mph - N/A   Clear
3:15 PM 86.0 °F 90.4 °F 69.8 °F 58% 29.78 in 10.0 mi NW 10.4 mph - N/A   Clear
3:19 PM 84.2 °F 88.4 °F 69.8 °F 62% 29.77 in 10.0 mi WNW 9.2 mph - N/A   Clear
3:38 PM 86.0 °F 90.4 °F 69.8 °F 58% 29.77 in 10.0 mi NW 13.8 mph - N/A   Clear
3:55 PM 86.0 °F 90.4 °F 69.8 °F 58% 29.78 in 10.0 mi NW 9.2 mph 16.1 mph N/A   Clear
4:15 PM 87.8 °F 91.4 °F 68.0 °F 52% 29.78 in 10.0 mi NW 12.7 mph 17.3 mph N/A   Clear
4:16 PM 87.8 °F 91.4 °F 68.0 °F 52% 29.78 in 10.0 mi NW 12.7 mph 17.3 mph N/A   Clear
4:35 PM 87.8 °F 91.4 °F 68.0 °F 52% 29.78 in 10.0 mi NW 10.4 mph - N/A   Clear
4:58 PM 87.8 °F 91.4 °F 68.0 °F 52% 29.77 in 10.0 mi WNW 8.1 mph - N/A   Clear
5:16 PM 87.8 °F 92.6 °F 69.8 °F 55% 29.77 in 10.0 mi NW 9.2 mph - N/A   Clear
5:35 PM 87.8 °F 91.4 °F 68.0 °F 52% 29.77 in 10.0 mi WNW 9.2 mph - N/A   Clear
5:55 PM 87.8 °F 91.4 °F 68.0 °F 52% 29.77 in 10.0 mi WNW 9.2 mph - N/A   Clear
5:56 PM 87.8 °F 91.4 °F 68.0 °F 52% 29.77 in 10.0 mi WNW 6.9 mph - N/A   Clear
6:15 PM 87.8 °F 92.6 °F 69.8 °F 55% 29.77 in 10.0 mi West 6.9 mph - N/A   Clear
6:20 PM 87.8 °F 92.6 °F 69.8 °F 55% 29.76 in 10.0 mi West 6.9 mph - N/A   Scattered Clouds
6:37 PM 84.2 °F 88.4 °F 69.8 °F 62% 29.76 in 10.0 mi West 4.6 mph - N/A   Scattered Clouds
6:55 PM 84.2 °F 89.6 °F 71.6 °F 66% 29.77 in 10.0 mi West 5.8 mph - N/A   Scattered Clouds
7:15 PM 84.2 °F 88.4 °F 69.8 °F 62% 29.76 in 10.0 mi WSW 5.8 mph - N/A   Clear
7:35 PM 84.2 °F 89.6 °F 71.6 °F 66% 29.76 in 10.0 mi SW 5.8 mph - N/A   Clear
7:36 PM 84.2 °F 89.6 °F 71.6 °F 66% 29.76 in 10.0 mi SW 5.8 mph - N/A   Clear
7:59 PM 84.2 °F 89.6 °F 71.6 °F 66% 29.76 in 10.0 mi SW 5.8 mph - N/A   Clear
8:17 PM 82.4 °F 87.2 °F 71.6 °F 70% 29.76 in 10.0 mi SW 4.6 mph - N/A   Clear
8:36 PM 80.6 °F 85.4 °F 73.4 °F 79% 29.75 in 10.0 mi SSW 4.6 mph - N/A   Clear
8:55 PM 80.6 °F 84.6 °F 71.6 °F 74% 29.76 in 10.0 mi SSW 3.5 mph - N/A   Clear
8:56 PM 80.6 °F 84.6 °F 71.6 °F 74% 29.76 in 10.0 mi SSW 3.5 mph - N/A   Clear
9:15 PM 80.6 °F 84.6 °F 71.6 °F 74% 29.76 in 10.0 mi Calm Calm - N/A   Clear
9:37 PM 78.8 °F - 73.4 °F 83% 29.77 in 10.0 mi Calm Calm - N/A   Mostly Cloudy
9:56 PM 78.8 °F - 71.6 °F 78% 29.76 in 10.0 mi South 3.5 mph - N/A   Scattered Clouds
10:15 PM 77.0 °F - 73.4 °F 89% 29.76 in 10.0 mi South 5.8 mph - N/A   Clear
10:16 PM 77.0 °F - 73.4 °F 89% 29.76 in 10.0 mi South 5.8 mph - N/A   Clear
10:35 PM 77.0 °F - 73.4 °F 89% 29.76 in 10.0 mi Calm Calm - N/A   Clear
10:36 PM 77.0 °F - 73.4 °F 89% 29.76 in 10.0 mi Calm Calm - N/A   Clear
10:59 PM 78.8 °F - 71.6 °F 78% 29.74 in 10.0 mi Calm Calm - N/A   Clear
11:16 PM 75.2 °F - 71.6 °F 89% 29.73 in 10.0 mi Calm Calm - N/A   Clear
11:36 PM 73.4 °F - 71.6 °F 94% 29.73 in 10.0 mi ESE 3.5 mph - N/A   Clear
11:55 PM 75.2 °F - 71.6 °F 89% 29.73 in 10.0 mi SE 4.6 mph - N/A   Clear